KE8GJZ-2 Weather Reports


Display with metric or nautical units.
time (UTC)temp
F
wind
direction
speed
MPH
gust
MPH
rain 1hr
in
rain 24hr
in
rain mn
in
humidity
%
barometer
mb
20260507114700 44 200 0.0 2.0 0.00 0.00 0.00 74 1015.4
20260507114157 43 191 0.0 2.0 0.00 0.00 0.00 76 1015.4
20260507113655 44 181 1.0 3.0 0.00 0.00 0.00 77 1015.4
20260507113151 43 241 1.0 1.0 0.00 0.00 0.00 76 1015.1
20260507112649 43 231 1.0 2.0 0.00 0.00 0.00 76 1015.0
20260507112145 42 216 1.0 3.0 0.00 0.00 0.00 78 1015.0
20260507111643 41 193 0.0 2.0 0.00 0.00 0.00 80 1015.1
20260507111139 39 211 0.0 5.0 0.00 0.00 0.00 82 1014.7
20260507110636 39 209 1.0 2.0 0.00 0.00 0.00 83 1014.9
20260507110133 39 207 1.0 2.0 0.00 0.00 0.00 83 1014.3
20260507105629 38 209 1.0 1.0 0.00 0.00 0.00 83 1014.6
20260507105125 38 217 1.0 2.0 0.00 0.00 0.00 84 1014.8
20260507104623 38 213 0.0 1.0 0.00 0.00 0.00 83 1014.4
20260507104119 38 213 1.0 1.0 0.00 0.00 0.00 84 1014.3
20260507103615 38 213 1.0 2.0 0.00 0.00 0.00 84 1014.3
20260507103112 38 217 0.0 1.0 0.00 0.00 0.00 84 1014.6
20260507102609 38 217 0.0 1.0 0.00 0.00 0.00 84 1014.6
20260507102105 38 219 0.0 1.0 0.00 0.00 0.00 84 1014.3
20260507101601 38 219 1.0 1.0 0.00 0.00 0.00 83 1014.2
20260507101057 38 223 0.0 1.0 0.00 0.00 0.00 83 1014.3
20260507100554 38 223 0.0 1.0 0.00 0.00 0.00 83 1014.2
20260507100052 38 223 1.0 1.0 0.00 0.00 0.00 83 1014.2
20260507095550 38 223 0.0 0.0 0.00 0.00 0.00 83 1014.1
20260507095047 38 223 1.0 1.0 0.00 0.00 0.00 83 1014.3
20260507094543 38 224 1.0 1.0 0.00 0.00 0.00 83 1014.2
20260507094040 39 223 0.0 1.0 0.00 0.00 0.00 82 1013.9
20260507093537 39 223 1.0 1.0 0.00 0.00 0.00 81 1013.9
20260507093036 39 217 1.0 1.0 0.00 0.00 0.00 80 1014.1
20260507092532 39 217 2.0 2.0 0.00 0.00 0.00 80 1014.1
20260507092029 40 218 1.0 2.0 0.00 0.00 0.00 79 1014.2
20260507091526 40 217 2.0 2.0 0.00 0.00 0.00 77 1014.2
20260507091022 41 215 1.0 2.0 0.00 0.00 0.00 77 1014.0
20260507090517 40 217 1.0 1.0 0.00 0.00 0.00 77 1014.0
20260507090014 41 213 1.0 2.0 0.00 0.00 0.00 77 1014.2
20260507085512 41 235 1.0 2.0 0.00 0.00 0.00 77 1014.0
20260507085008 41 223 1.0 1.0 0.00 0.00 0.00 78 1014.3
20260507084505 41 223 1.0 2.0 0.00 0.00 0.00 78 1014.1
20260507084002 41 219 1.0 1.0 0.00 0.00 0.00 78 1014.1
20260507083458 41 222 0.0 1.0 0.00 0.00 0.00 77 1013.8
20260507082955 41 214 0.0 1.0 0.00 0.00 0.00 76 1014.1
20260507082451 41 209 1.0 1.0 0.00 0.00 0.00 76 1014.0
20260507081947 41 224 1.0 1.0 0.00 0.00 0.00 76 1014.0
20260507081444 41 216 0.0 1.0 0.00 0.00 0.00 75 1014.1
20260507080941 42 227 1.0 2.0 0.00 0.00 0.00 74 1013.9
20260507080437 42 217 1.0 2.0 0.00 0.00 0.00 76 1014.2
20260507075932 42 218 0.0 1.0 0.00 0.00 0.00 74 1014.0
20260507075429 42 236 1.0 1.0 0.00 0.00 0.00 74 1014.2
20260507074926 43 267 2.0 2.0 0.00 0.00 0.00 74 1013.9
20260507074422 43 213 1.0 3.0 0.00 0.00 0.00 73 1014.0
20260507073920 43 216 0.0 1.0 0.00 0.00 0.00 73 1013.9
20260507073416 43 233 0.0 3.0 0.00 0.00 0.00 73 1014.1
20260507072914 43 257 1.0 3.0 0.00 0.00 0.00 73 1014.2
20260507072411 43 233 1.0 2.0 0.00 0.00 0.00 73 1014.1
20260507071909 43 227 0.0 2.0 0.00 0.00 0.00 73 1013.9
20260507071405 43 223 1.0 5.0 0.00 0.00 0.00 71 1014.0
20260507070901 43 226 0.0 3.0 0.00 0.00 0.00 72 1014.0
20260507070359 44 346 2.0 2.0 0.00 0.00 0.00 73 1014.0
20260507065856 44 238 0.0 6.0 0.00 0.00 0.00 73 1014.0
20260507065352 44 230 1.0 6.0 0.00 0.00 0.00 73 1013.8
20260507064849 44 269 3.0 8.0 0.00 0.00 0.00 74 1013.7
20260507064348 44 351 3.0 5.0 0.00 0.00 0.00 73 1013.9
20260507063845 44 268 2.0 5.0 0.00 0.00 0.00 74 1013.8
20260507063342 44 255 1.0 3.0 0.00 0.00 0.00 73 1014.1
20260507062839 44 231 1.0 3.0 0.00 0.00 0.00 74 1014.2
20260507062335 45 227 3.0 7.0 0.00 0.00 0.00 74 1014.1
20260507061834 44 18 1.0 2.0 0.00 0.00 0.00 76 1013.9
20260507061331 44 242 1.0 2.0 0.00 0.00 0.00 76 1013.9
20260507060830 45 243 1.0 6.0 0.00 0.00 0.00 76 1013.8
20260507060326 44 194 2.0 5.0 0.00 0.00 0.00 76 1013.8
20260507055823 44 248 2.0 3.0 0.00 0.00 0.00 76 1013.6
20260507055318 45 238 1.0 5.0 0.00 0.00 0.00 76 1013.7
20260507054815 45 238 0.0 5.0 0.00 0.00 0.00 76 1013.7
20260507054311 45 165 1.0 2.0 0.00 0.00 0.00 77 1013.8
20260507053808 44 207 0.0 1.0 0.00 0.00 0.00 76 1013.9
20260507053306 45 195 2.0 2.0 0.00 0.00 0.00 76 1013.6
20260507052805 45 147 2.0 2.0 0.00 0.00 0.00 75 1013.7
20260507052301 45 204 0.0 1.0 0.00 0.00 0.00 73 1013.8
20260507051759 45 201 0.0 1.0 0.00 0.00 0.00 72 1013.8
20260507051256 45 205 0.0 0.0 0.00 0.00 0.00 74 1013.8
20260507050753 45 203 0.0 1.0 0.00 0.00 0.00 72 1013.7
20260507050249 45 187 1.0 2.0 0.00 0.00 0.00 71 1013.6
20260507045746 46 230 0.0 1.0 0.00 0.00 0.00 69 1013.8
20260507045242 46 230 0.0 1.0 0.00 0.00 0.00 69 1013.6
20260507044740 46 201 0.0 1.0 0.00 0.00 0.00 68 1013.6
20260507044236 46 201 1.0 1.0 0.00 0.00 0.00 70 1013.5
20260507043732 46 200 0.0 1.0 0.00 0.00 0.00 70 1013.4
20260507043229 45 209 0.0 1.0 0.00 0.00 0.00 73 1013.5
20260507042725 45 214 0.0 0.0 0.00 0.00 0.00 75 1013.5
20260507042220 44 214 0.0 0.0 0.00 0.00 0.00 72 1013.7
20260507041718 44 214 0.0 0.0 0.00 0.00 0.00 70 1013.4
20260507041214 44 214 0.0 0.0 0.00 0.00 0.00 69 1013.5
20260507040712 44 214 0.0 0.0 0.00 0.00 0.00 68 1013.4
20260507040207 44 214 0.0 0.0 0.00 0.00 0.00 69 1013.5
20260507035704 44 214 0.0 0.0 0.00 0.00 0.00 69 1013.6
20260507035159 44 214 0.0 0.0 0.00 0.00 0.00 68 1013.5
20260507034656 44 214 0.0 1.0 0.00 0.00 0.00 68 1013.6
20260507034154 44 214 0.0 0.0 0.00 0.00 0.00 67 1013.6
20260507033653 45 214 0.0 0.0 0.00 0.00 0.00 66 1013.4
20260507033149 45 214 1.0 1.0 0.00 0.00 0.00 66 1013.4
20260507032647 45 214 0.0 0.0 0.00 0.00 0.00 65 1013.6
20260507032142 46 214 0.0 0.0 0.00 0.00 0.00 65 1013.3
20260507031640 46 214 1.0 1.0 0.00 0.00 0.00 63 1013.4
20260507031136 46 214 1.0 2.0 0.00 0.00 0.00 62 1013.4
20260507030633 47 213 1.0 1.0 0.00 0.00 0.00 60 1013.6
20260507030131 47 213 0.0 2.0 0.00 0.00 0.00 60 1013.5
20260507025628 48 210 1.0 1.0 0.00 0.00 0.00 60 1013.4
20260507025124 48 210 0.0 1.0 0.00 0.00 0.00 59 1013.4
20260507024622 48 209 1.0 1.0 0.00 0.00 0.00 58 1013.5
20260507024119 48 210 1.0 1.0 0.00 0.00 0.00 59 1013.6
20260507023615 48 210 0.0 1.0 0.00 0.00 0.00 60 1013.6
20260507023113 48 210 0.0 0.0 0.00 0.00 0.00 60 1013.5
20260507022609 48 203 0.0 1.0 0.00 0.00 0.00 57 1013.1
20260507022104 49 216 1.0 1.0 0.00 0.00 0.00 57 1013.2
20260507021601 49 217 1.0 1.0 0.00 0.00 0.00 56 1013.2
20260507021057 49 235 0.0 1.0 0.00 0.00 0.00 56 1013.2
20260507020555 49 203 1.0 2.0 0.00 0.00 0.00 56 1013.0
20260507020051 49 210 0.0 1.0 0.00 0.00 0.00 56 1013.1
20260507015550 49 201 0.0 1.0 0.00 0.00 0.00 56 1013.1
20260507015047 49 220 1.0 1.0 0.00 0.00 0.00 58 1013.0
20260507014543 49 220 0.0 1.0 0.00 0.00 0.00 57 1012.9
20260507014039 49 221 0.0 1.0 0.00 0.00 0.00 58 1012.8
20260507013536 49 226 1.0 1.0 0.00 0.00 0.00 58 1012.9
20260507013033 50 226 0.0 0.0 0.00 0.00 0.00 56 1012.9
20260507012531 50 226 0.0 0.0 0.00 0.00 0.00 56 1013.1
20260507012026 50 226 0.0 1.0 0.00 0.00 0.00 54 1012.8
20260507011524 50 229 0.0 0.0 0.00 0.00 0.00 54 1012.8
20260507011020 50 206 0.0 1.0 0.00 0.00 0.00 54 1012.8
20260507010515 50 203 1.0 1.0 0.00 0.00 0.00 52 1012.6
20260507010012 50 198 0.0 2.0 0.00 0.00 0.00 51 1012.8
20260507005509 50 204 0.0 1.0 0.00 0.00 0.00 52 1012.6
20260507005005 50 203 1.0 1.0 0.00 0.00 0.00 51 1012.7
20260507004502 50 216 1.0 1.0 0.00 0.00 0.00 51 1012.6
20260507004000 50 215 0.0 1.0 0.00 0.00 0.00 51 1012.5
20260507003455 51 215 0.0 1.0 0.00 0.00 0.00 51 1012.5
20260507002950 51 217 0.0 1.0 0.00 0.00 0.00 49 1012.6
20260507002447 51 213 0.0 2.0 0.00 0.00 0.00 49 1012.5
20260507001944 51 206 0.0 0.0 0.00 0.00 0.00 49 1012.5
20260507001440 51 207 1.0 1.0 0.00 0.00 0.00 48 1012.3
20260507000938 51 206 0.0 0.0 0.00 0.00 0.00 49 1012.4
20260507000435 51 201 1.0 2.0 0.00 0.00 0.00 51 1012.5
20260506235929 52 222 0.0 0.0 0.00 0.00 0.00 48 1012.3
20260506235427 52 204 0.0 1.0 0.00 0.00 0.00 47 1012.2
20260506234921 52 221 0.0 1.0 0.00 0.00 0.00 48 1012.3
20260506234420 52 225 0.0 1.0 0.00 0.00 0.00 46 1012.5
20260506233917 52 184 1.0 2.0 0.00 0.00 0.00 46 1012.4
20260506233414 52 219 0.0 0.0 0.00 0.00 0.00 47 1012.2
20260506232910 52 292 2.0 5.0 0.00 0.00 0.00 49 1012.2
20260506232406 53 220 0.0 1.0 0.00 0.00 0.00 46 1012.2
20260506231902 53 215 1.0 1.0 0.00 0.00 0.00 48 1012.3
20260506231400 53 345 3.0 3.0 0.00 0.00 0.00 49 1012.3
20260506230857 53 283 1.0 2.0 0.00 0.00 0.00 47 1012.1
20260506230354 53 235 1.0 3.0 0.00 0.00 0.00 46 1012.4
20260506225850 53 346 3.0 5.0 0.00 0.00 0.00 48 1012.2
20260506225348 53 328 4.0 6.0 0.00 0.00 0.00 44 1012.5
20260506224844 53 243 2.0 3.0 0.00 0.00 0.00 43 1012.4
20260506224342 53 287 4.0 5.0 0.00 0.00 0.00 43 1012.4
20260506223838 53 159 1.0 3.0 0.00 0.00 0.00 44 1012.3
20260506223333 53 231 1.0 3.0 0.00 0.00 0.00 46 1012.3
20260506222831 54 329 3.0 3.0 0.00 0.00 0.00 45 1012.4
20260506222326 54 0 4.0 7.0 0.00 0.00 0.00 46 1012.3
20260506221825 54 17 3.0 7.0 0.00 0.00 0.00 45 1012.3
20260506221322 54 33 2.0 6.0 0.00 0.00 0.00 44 1012.1
20260506220819 54 19 4.0 6.0 0.00 0.00 0.00 45 1012.5
20260506220314 54 264 1.0 6.0 0.00 0.00 0.00 46 1012.3
20260506215811 54 348 3.0 11.0 0.00 0.00 0.00 46 1012.5
20260506215307 55 76 5.0 6.0 0.00 0.00 0.00 45 1012.2
20260506214803 54 335 2.0 2.0 0.00 0.00 0.00 43 1012.5
20260506214300 54 1 7.0 9.0 0.00 0.00 0.00 43 1012.3
20260506213758 54 99 2.0 6.0 0.00 0.00 0.00 42 1012.4
20260506213254 54 358 3.0 6.0 0.00 0.00 0.00 42 1012.5
20260506212752 54 190 2.0 9.0 0.00 0.00 0.00 43 1012.0
20260506212248 54 341 2.0 8.0 0.00 0.00 0.00 45 1012.3
20260506211743 54 294 2.0 8.0 0.00 0.00 0.00 42 1012.2
20260506211240 55 210 2.0 5.0 0.00 0.00 0.00 42 1012.4
20260506210737 54 352 6.0 10.0 0.00 0.00 0.00 45 1012.3
20260506210233 54 128 2.0 9.0 0.00 0.00 0.00 43 1012.6
20260506205731 55 55 3.0 3.0 0.00 0.00 0.00 44 1012.4
20260506205226 54 5 3.0 8.0 0.00 0.00 0.00 42 1012.6
20260506204723 54 53 4.0 6.0 0.00 0.00 0.00 44 1012.6
20260506204221 54 277 3.0 5.0 0.00 0.00 0.00 48 1012.7
20260506203719 53 357 6.0 11.0 0.00 0.00 0.00 44 1012.6
20260506203215 54 127 4.0 6.0 0.00 0.00 0.00 46 1012.4
20260506202714 54 7 7.0 9.0 0.00 0.00 0.00 44 1012.7
20260506202209 54 212 0.0 3.0 0.00 0.00 0.00 45 1012.7
20260506201707 54 102 3.0 6.0 0.00 0.00 0.00 45 1012.8
20260506201203 55 137 4.0 7.0 0.00 0.00 0.00 44 1012.8
20260506200700 54 5 4.0 7.0 0.00 0.00 0.00 45 1012.9
20260506200157 53 354 4.0 8.0 0.00 0.00 0.00 44 1012.9
20260506195653 54 227 2.0 6.0 0.00 0.00 0.00 44 1012.8
20260506195149 54 223 3.0 5.0 0.00 0.00 0.00 43 1013.0
20260506194647 54 149 7.0 8.0 0.00 0.00 0.00 43 1013.1
20260506194143 53 356 6.0 10.0 0.00 0.00 0.00 43 1012.9
20260506193641 53 351 4.0 6.0 0.00 0.00 0.00 48 1013.0
20260506193138 53 330 4.0 8.0 0.00 0.00 0.00 47 1012.8
20260506192634 55 8 7.0 10.0 0.00 0.00 0.00 43 1013.1
20260506192131 53 18 5.0 9.0 0.00 0.00 0.00 46 1012.9
20260506191628 53 9 6.0 8.0 0.00 0.00 0.00 42 1013.1
20260506191123 53 4 9.0 11.0 0.00 0.00 0.00 42 1013.1
20260506190621 53 326 9.0 10.0 0.00 0.00 0.00 46 1012.9
20260506190118 53 22 4.0 6.0 0.00 0.00 0.00 43 1012.7
20260506185615 53 6 9.0 13.0 0.00 0.00 0.00 43 1012.9
20260506185111 54 31 4.0 6.0 0.00 0.00 0.00 42 1013.1
20260506184609 53 350 6.0 9.0 0.00 0.00 0.00 45 1013.1
20260506184106 53 354 3.0 8.0 0.00 0.00 0.00 44 1013.0
20260506183602 53 303 7.0 9.0 0.00 0.00 0.00 45 1013.1
20260506183058 53 303 8.0 10.0 0.00 0.00 0.00 45 1013.2
20260506182556 54 227 2.0 6.0 0.00 0.00 0.00 45 1012.9
20260506182053 53 359 5.0 9.0 0.00 0.00 0.00 44 1013.2
20260506181551 53 329 9.0 13.0 0.00 0.00 0.00 46 1013.1
20260506181047 53 30 3.0 9.0 0.00 0.00 0.00 46 1013.1
20260506180544 53 342 3.0 6.0 0.00 0.00 0.00 44 1013.1
20260506180041 54 212 1.0 3.0 0.00 0.00 0.00 45 1013.2
20260506175537 53 263 5.0 10.0 0.00 0.00 0.00 45 1013.1
20260506175033 53 246 2.0 9.0 0.00 0.00 0.00 52 1013.2
20260506174532 54 6 6.0 8.0 0.00 0.00 0.00 48 1013.1
20260506174028 53 332 3.0 5.0 0.00 0.00 0.00 47 1013.0
20260506173526 54 327 2.0 8.0 0.00 0.00 0.00 44 1013.1
20260506173022 54 222 2.0 8.0 0.00 0.00 0.00 44 1012.9
20260506172520 53 285 4.0 9.0 0.00 0.00 0.00 48 1013.1
20260506172016 52 349 5.0 8.0 0.00 0.00 0.00 47 1013.1
20260506171514 52 3 7.0 9.0 0.00 0.00 0.00 46 1013.1
20260506171010 53 356 8.0 13.0 0.00 0.00 0.00 47 1013.1
20260506170508 52 253 2.0 6.0 0.00 0.00 0.00 45 1013.4
20260506170000 52 4 5.0 8.0 0.00 0.00 0.00 46 1013.2
20260506165458 52 190 4.0 11.0 0.00 0.00 0.00 45 1013.4
20260506164954 53 8 7.0 9.0 0.00 0.00 0.00 45 1013.4
20260506164451 52 340 3.0 8.0 0.00 0.00 0.00 45 1013.4
20260506163949 52 301 4.0 8.0 0.00 0.00 0.00 44 1013.3
20260506163444 52 356 5.0 8.0 0.00 0.00 0.00 44 1013.4
20260506162938 52 14 5.0 7.0 0.00 0.00 0.00 44 1013.4
20260506162436 51 247 2.0 9.0 0.00 0.00 0.00 52 1013.2
20260506161928 53 10 5.0 7.0 0.00 0.00 0.00 45 1013.4
20260506161426 52 71 3.0 8.0 0.00 0.00 0.00 48 1013.5
20260506160923 53 319 4.0 5.0 0.00 0.00 0.00 44 1013.5
20260506160420 52 88 3.0 3.0 0.00 0.00 0.00 47 1013.4
20260506155918 51 11 4.0 8.0 0.00 0.00 0.00 47 1013.3
20260506155415 51 3 6.0 7.0 0.00 0.00 0.00 48 1013.5
20260506153537 51 327 4.0 5.0 0.00 0.00 0.00 46 1013.7
20260506153034 52 81 4.0 5.0 0.00 0.00 0.00 45 1013.3
20260506152531 52 210 0.0 2.0 0.00 0.00 0.00 44 1013.6
20260506152029 51 287 4.0 5.0 0.00 0.00 0.00 44 1013.6
20260506151527 51 350 5.0 6.0 0.00 0.00 0.00 49 1013.8
20260506151024 50 32 3.0 6.0 0.00 0.00 0.00 48 1013.5
20260506150520 50 354 5.0 7.0 0.00 0.00 0.00 47 1013.7
20260506150017 49 279 2.0 2.0 0.00 0.00 0.00 48 1013.7
20260506145514 50 349 3.0 5.0 0.00 0.00 0.00 46 1013.7
20260506145011 50 235 1.0 3.0 0.00 0.00 0.00 48 1013.8
20260506144508 50 230 1.0 8.0 0.00 0.00 0.00 45 1013.7
20260506144005 49 228 2.0 2.0 0.00 0.00 0.00 48 1013.6
20260506143503 50 0 6.0 7.0 0.00 0.00 0.00 49 1013.5
20260506143001 49 327 3.0 5.0 0.00 0.00 0.00 48 1013.7
20260506142458 50 248 1.0 3.0 0.00 0.00 0.00 47 1013.4
20260506141956 48 249 1.0 2.0 0.00 0.00 0.00 48 1013.5
20260506141454 50 0 5.0 8.0 0.00 0.00 0.00 47 1013.3
20260506140952 49 13 3.0 5.0 0.00 0.00 0.00 50 1013.3
20260506140449 50 272 1.0 2.0 0.00 0.00 0.00 47 1013.4
20260506135945 49 289 4.0 5.0 0.00 0.00 0.00 51 1013.5
20260506135443 49 223 0.0 0.0 0.00 0.00 0.00 53 1013.5
20260506134938 48 359 5.0 5.0 0.00 0.00 0.00 54 1013.5
20260506134435 48 353 3.0 6.0 0.00 0.00 0.00 54 1013.5
20260506133932 48 242 1.0 5.0 0.00 0.00 0.00 54 1013.3
20260506133429 48 235 1.0 3.0 0.00 0.00 0.00 56 1013.4
20260506132926 48 225 0.0 1.0 0.00 0.00 0.00 58 1013.3
20260506132423 47 27 1.0 6.0 0.00 0.00 0.00 57 1013.5
20260506131920 47 48 3.0 5.0 0.00 0.00 0.00 58 1013.2
20260506131417 47 29 3.0 6.0 0.00 0.00 0.00 58 1013.3
20260506130914 47 7 6.0 7.0 0.00 0.00 0.00 60 1013.6
20260506130410 46 252 1.0 3.0 0.00 0.00 0.00 62 1013.3
20260506125909 46 340 4.0 6.0 0.00 0.00 0.00 65 1013.4
20260506125407 46 57 2.0 3.0 0.00 0.00 0.00 63 1013.2
20260506124904 46 345 1.0 3.0 0.00 0.00 0.00 66 1013.4
20260506124401 46 233 0.0 1.0 0.00 0.00 0.00 65 1013.2
20260506123859 46 285 1.0 3.0 0.00 0.00 0.00 66 1013.6
20260506123357 45 250 2.0 6.0 0.00 0.00 0.00 72 1013.6
20260506122854 45 1 5.0 6.0 0.00 0.00 0.00 69 1013.6
20260506122351 45 7 4.0 6.0 0.00 0.00 0.00 69 1013.7
20260506121849 45 297 2.0 2.0 0.00 0.00 0.00 70 1013.5
20260506121346 45 252 3.0 5.0 0.00 0.00 0.00 71 1013.4
20260506120843 44 238 2.0 5.0 0.00 0.00 0.00 73 1013.4
20260506120340 44 15 3.0 5.0 0.00 0.00 0.00 74 1013.4
20260506115838 44 279 2.0 3.0 0.00 0.00 0.00 72 1013.3
20260506115336 44 233 1.0 2.0 0.00 0.00 0.00 74 1013.2